Year,Month,Day,Hour,Minute,Value (Times are PST for temperature in C)
2019,06,25,00,00,12.90
2019,06,25,00,01,12.90
2019,06,25,00,02,12.80
2019,06,25,00,03,12.80
2019,06,25,00,04,12.80
2019,06,25,00,05,12.80
2019,06,25,00,06,12.70
2019,06,25,00,07,12.70
2019,06,25,00,08,12.70
2019,06,25,00,09,12.70
2019,06,25,00,10,12.70
2019,06,25,00,11,12.70
2019,06,25,00,12,12.60
2019,06,25,00,13,12.60
2019,06,25,00,14,12.60
2019,06,25,00,15,12.50
2019,06,25,00,16,12.50
2019,06,25,00,17,12.50
2019,06,25,00,18,12.40
2019,06,25,00,19,12.40
2019,06,25,00,20,12.40
2019,06,25,00,21,12.40
2019,06,25,00,22,12.40
2019,06,25,00,23,12.30
2019,06,25,00,24,12.30
2019,06,25,00,25,12.20
2019,06,25,00,26,12.20
2019,06,25,00,27,12.20
2019,06,25,00,28,12.20
2019,06,25,00,29,12.10
2019,06,25,00,30,12.10
2019,06,25,00,31,12.10
2019,06,25,00,32,12.10
2019,06,25,00,33,12.00
2019,06,25,00,34,12.00
2019,06,25,00,35,12.00
2019,06,25,00,36,11.90
2019,06,25,00,37,11.90
2019,06,25,00,38,11.90
2019,06,25,00,39,11.90
2019,06,25,00,40,11.90
2019,06,25,00,41,11.90
2019,06,25,00,42,11.80
2019,06,25,00,43,11.80
2019,06,25,00,44,11.80
2019,06,25,00,45,11.80
2019,06,25,00,46,11.80
2019,06,25,00,47,11.80
2019,06,25,00,48,11.80
2019,06,25,00,49,11.70
2019,06,25,00,50,11.70
2019,06,25,00,51,11.70
2019,06,25,00,52,11.60
2019,06,25,00,53,11.60
2019,06,25,00,54,11.60
2019,06,25,00,55,11.60
2019,06,25,00,56,11.60
2019,06,25,00,57,11.60
2019,06,25,00,58,11.50
2019,06,25,00,59,11.50
2019,06,25,01,00,11.50
2019,06,25,01,01,11.40
2019,06,25,01,02,11.40
2019,06,25,01,03,11.40
2019,06,25,01,04,11.40
2019,06,25,01,05,11.40
2019,06,25,01,06,11.40
2019,06,25,01,07,11.40
2019,06,25,01,08,11.40
2019,06,25,01,09,11.40
2019,06,25,01,10,11.40
2019,06,25,01,11,11.50
2019,06,25,01,12,11.50
2019,06,25,01,13,11.50
2019,06,25,01,14,11.50
2019,06,25,01,15,11.50
2019,06,25,01,16,11.50
2019,06,25,01,17,11.50
2019,06,25,01,18,11.50
2019,06,25,01,19,11.50
2019,06,25,01,20,11.50
2019,06,25,01,21,11.50
2019,06,25,01,22,11.50
2019,06,25,01,23,11.50
2019,06,25,01,24,11.40
2019,06,25,01,25,11.40
2019,06,25,01,26,11.30
2019,06,25,01,27,11.30
2019,06,25,01,28,11.30
2019,06,25,01,29,11.30
2019,06,25,01,30,11.30
2019,06,25,01,31,11.30
2019,06,25,01,32,11.20
2019,06,25,01,33,11.20
2019,06,25,01,34,11.10
2019,06,25,01,35,11.10
2019,06,25,01,36,11.10
2019,06,25,01,37,11.10
2019,06,25,01,38,11.10
2019,06,25,01,39,11.00
2019,06,25,01,40,11.00
2019,06,25,01,41,11.00
2019,06,25,01,42,10.90
2019,06,25,01,43,10.90
2019,06,25,01,44,10.90
2019,06,25,01,45,10.80
2019,06,25,01,46,10.80
2019,06,25,01,47,10.80
2019,06,25,01,48,10.80
2019,06,25,01,49,10.80
2019,06,25,01,50,10.80
2019,06,25,01,51,10.80
2019,06,25,01,52,10.80
2019,06,25,01,53,10.80
2019,06,25,01,54,10.80
2019,06,25,01,55,10.80
2019,06,25,01,56,10.80
2019,06,25,01,57,10.70
2019,06,25,01,58,10.70
2019,06,25,01,59,10.70
2019,06,25,02,00,10.70
2019,06,25,02,01,10.70
2019,06,25,02,02,10.70
2019,06,25,02,03,10.70
2019,06,25,02,04,10.70
2019,06,25,02,05,10.70
2019,06,25,02,06,10.70
2019,06,25,02,07,10.70
2019,06,25,02,08,10.60
2019,06,25,02,09,10.60
2019,06,25,02,10,10.60
2019,06,25,02,11,10.60
2019,06,25,02,12,10.60
2019,06,25,02,13,10.60
2019,06,25,02,14,10.60
2019,06,25,02,15,10.60
2019,06,25,02,16,10.60
2019,06,25,02,17,10.60
2019,06,25,02,18,10.60
2019,06,25,02,19,10.60
2019,06,25,02,20,10.60
2019,06,25,02,21,10.50
2019,06,25,02,22,10.50
2019,06,25,02,23,10.50
2019,06,25,02,24,10.50
2019,06,25,02,25,10.50
2019,06,25,02,26,10.50
2019,06,25,02,27,10.50
2019,06,25,02,28,10.50
2019,06,25,02,29,10.40
2019,06,25,02,30,10.40
2019,06,25,02,31,10.40
2019,06,25,02,32,10.50
2019,06,25,02,33,10.50
2019,06,25,02,34,10.50
2019,06,25,02,35,10.50
2019,06,25,02,36,10.50
2019,06,25,02,37,10.50
2019,06,25,02,38,10.60
2019,06,25,02,39,10.70
2019,06,25,02,40,10.70
2019,06,25,02,41,10.80
2019,06,25,02,42,10.80
2019,06,25,02,43,10.80
2019,06,25,02,44,10.90
2019,06,25,02,45,10.90
2019,06,25,02,46,10.90
2019,06,25,02,47,10.90
2019,06,25,02,48,10.90
2019,06,25,02,49,10.90
2019,06,25,02,50,10.90
2019,06,25,02,51,10.90
2019,06,25,02,52,10.90
2019,06,25,02,53,10.90
2019,06,25,02,54,10.90
2019,06,25,02,55,10.90
2019,06,25,02,56,10.90
2019,06,25,02,57,10.90
2019,06,25,02,58,10.90
2019,06,25,02,59,10.90
2019,06,25,03,00,10.90
2019,06,25,03,01,10.90
2019,06,25,03,02,10.90
2019,06,25,03,03,10.90
2019,06,25,03,04,10.90
2019,06,25,03,05,10.90
2019,06,25,03,06,10.90
2019,06,25,03,07,10.90
2019,06,25,03,08,10.90
2019,06,25,03,09,11.00
2019,06,25,03,10,11.00
2019,06,25,03,11,11.10
2019,06,25,03,12,11.10
2019,06,25,03,13,11.10
2019,06,25,03,14,11.20
2019,06,25,03,15,11.20
2019,06,25,03,16,11.30
2019,06,25,03,17,11.30
2019,06,25,03,18,11.30
2019,06,25,03,19,11.30
2019,06,25,03,20,11.30
2019,06,25,03,21,11.30
2019,06,25,03,22,11.30
2019,06,25,03,23,11.30
2019,06,25,03,24,11.30
2019,06,25,03,25,11.30
2019,06,25,03,26,11.30
2019,06,25,03,27,11.30
2019,06,25,03,28,11.30
2019,06,25,03,29,11.30
2019,06,25,03,30,11.30
2019,06,25,03,31,11.30
2019,06,25,03,32,11.30
2019,06,25,03,33,11.40
2019,06,25,03,34,11.40
2019,06,25,03,35,11.40
2019,06,25,03,36,11.40
2019,06,25,03,37,11.40
2019,06,25,03,38,11.40
2019,06,25,03,39,11.40
2019,06,25,03,40,11.40
2019,06,25,03,41,11.40
2019,06,25,03,42,11.40
2019,06,25,03,43,11.40
2019,06,25,03,44,11.40
2019,06,25,03,45,11.40
2019,06,25,03,46,11.40
2019,06,25,03,47,11.40
2019,06,25,03,48,11.40
2019,06,25,03,49,11.30
2019,06,25,03,50,11.30
2019,06,25,03,51,11.30
2019,06,25,03,52,11.30
2019,06,25,03,53,11.30
2019,06,25,03,54,11.40
2019,06,25,03,55,11.40
2019,06,25,03,56,11.40
2019,06,25,03,57,11.40
2019,06,25,03,58,11.50
2019,06,25,03,59,11.50
2019,06,25,04,00,11.60
2019,06,25,04,01,11.60
2019,06,25,04,02,11.60
2019,06,25,04,03,11.60
2019,06,25,04,04,11.50
2019,06,25,04,05,11.50
2019,06,25,04,06,11.50
2019,06,25,04,07,11.40
2019,06,25,04,08,11.40
2019,06,25,04,09,11.40
2019,06,25,04,10,11.50
2019,06,25,04,11,11.50
2019,06,25,04,12,11.50
2019,06,25,04,13,11.60
2019,06,25,04,14,11.60
2019,06,25,04,15,11.60
2019,06,25,04,16,11.60
2019,06,25,04,17,11.60
2019,06,25,04,18,11.60
2019,06,25,04,19,11.60
2019,06,25,04,20,11.50
2019,06,25,04,21,11.50
2019,06,25,04,22,11.50
2019,06,25,04,23,11.40
2019,06,25,04,24,11.40
2019,06,25,04,25,11.40
2019,06,25,04,26,11.30
2019,06,25,04,27,11.30
2019,06,25,04,28,11.30
2019,06,25,04,29,11.20
2019,06,25,04,30,11.20
2019,06,25,04,31,11.20
2019,06,25,04,32,11.10
2019,06,25,04,33,11.10
2019,06,25,04,34,11.10
2019,06,25,04,35,11.10
2019,06,25,04,36,11.10
2019,06,25,04,37,11.00
2019,06,25,04,38,11.00
2019,06,25,04,39,11.00
2019,06,25,04,40,11.00
2019,06,25,04,41,11.00
2019,06,25,04,42,11.00
2019,06,25,04,43,11.00
2019,06,25,04,44,11.00
2019,06,25,04,45,11.00
2019,06,25,04,46,11.00
2019,06,25,04,47,10.90
2019,06,25,04,48,10.90
2019,06,25,04,49,10.90
2019,06,25,04,50,10.80
2019,06,25,04,51,10.80
2019,06,25,04,52,10.80
2019,06,25,04,53,10.80
2019,06,25,04,54,10.70
2019,06,25,04,55,10.70
2019,06,25,04,56,10.70
2019,06,25,04,57,10.70
2019,06,25,04,58,10.70
2019,06,25,04,59,10.70
2019,06,25,05,00,10.70
2019,06,25,05,01,10.70
2019,06,25,05,02,10.70
2019,06,25,05,03,10.70
2019,06,25,05,04,10.70
2019,06,25,05,05,10.70
2019,06,25,05,06,10.70
2019,06,25,05,07,10.70
2019,06,25,05,08,10.70
2019,06,25,05,09,10.70
2019,06,25,05,10,10.70
2019,06,25,05,11,10.70
2019,06,25,05,12,10.70
2019,06,25,05,13,10.70
2019,06,25,05,14,10.70
2019,06,25,05,15,10.70
2019,06,25,05,16,10.70
2019,06,25,05,17,10.70
2019,06,25,05,18,10.70
2019,06,25,05,19,10.70
2019,06,25,05,20,10.70
2019,06,25,05,21,10.70
2019,06,25,05,22,10.70
2019,06,25,05,23,10.70
2019,06,25,05,24,10.70
2019,06,25,05,25,10.80
2019,06,25,05,26,10.80
2019,06,25,05,27,10.80
2019,06,25,05,28,10.80
2019,06,25,05,29,10.80
2019,06,25,05,30,10.80
2019,06,25,05,31,10.80
2019,06,25,05,32,10.80
2019,06,25,05,33,10.90
2019,06,25,05,34,10.90
2019,06,25,05,35,10.90
2019,06,25,05,36,10.90
2019,06,25,05,37,10.90
2019,06,25,05,38,10.90
2019,06,25,05,39,10.90
2019,06,25,05,40,10.90
2019,06,25,05,41,10.90
2019,06,25,05,42,10.90
2019,06,25,05,43,10.90
2019,06,25,05,44,10.90
2019,06,25,05,45,10.90
2019,06,25,05,46,11.00
2019,06,25,05,47,11.00
2019,06,25,05,48,11.00
2019,06,25,05,49,11.00
2019,06,25,05,50,11.00
2019,06,25,05,51,11.10
2019,06,25,05,52,11.10
2019,06,25,05,53,11.10
2019,06,25,05,54,11.10
2019,06,25,05,55,11.10
2019,06,25,05,56,11.10
2019,06,25,05,57,11.20
2019,06,25,05,58,11.20
2019,06,25,05,59,11.20
2019,06,25,06,00,11.20
2019,06,25,06,01,11.20
2019,06,25,06,02,11.30
2019,06,25,06,03,11.30
2019,06,25,06,04,11.30
2019,06,25,06,05,11.30
2019,06,25,06,06,11.30
2019,06,25,06,07,11.30
2019,06,25,06,08,11.30
2019,06,25,06,09,11.30
2019,06,25,06,10,11.30
2019,06,25,06,11,11.30
2019,06,25,06,12,11.30
2019,06,25,06,13,11.30
2019,06,25,06,14,11.40
2019,06,25,06,15,11.40
2019,06,25,06,16,11.40
2019,06,25,06,17,11.40
2019,06,25,06,18,11.40
2019,06,25,06,19,11.40
2019,06,25,06,20,11.40
2019,06,25,06,21,11.40
2019,06,25,06,22,11.40
2019,06,25,06,23,11.40
2019,06,25,06,24,11.40
2019,06,25,06,25,11.50
2019,06,25,06,26,11.50
2019,06,25,06,27,11.50
2019,06,25,06,28,11.50
2019,06,25,06,29,11.50
2019,06,25,06,30,11.60
2019,06,25,06,31,11.60
2019,06,25,06,32,11.60
2019,06,25,06,33,11.60
2019,06,25,06,34,11.60
2019,06,25,06,35,11.60
2019,06,25,06,36,11.60
2019,06,25,06,37,11.70
2019,06,25,06,38,11.70
2019,06,25,06,39,11.70
2019,06,25,06,40,11.70
2019,06,25,06,41,11.70
2019,06,25,06,42,11.70
2019,06,25,06,43,11.70
2019,06,25,06,44,11.70
2019,06,25,06,45,11.80
2019,06,25,06,46,11.80
2019,06,25,06,47,11.80
2019,06,25,06,48,11.80
2019,06,25,06,49,11.80
2019,06,25,06,50,11.80
2019,06,25,06,51,11.80
2019,06,25,06,52,11.90
2019,06,25,06,53,11.90
2019,06,25,06,54,11.90
2019,06,25,06,55,11.90
2019,06,25,06,56,11.90
2019,06,25,06,57,11.90
2019,06,25,06,58,11.90
2019,06,25,06,59,11.90
2019,06,25,07,00,12.00
2019,06,25,07,01,12.00
2019,06,25,07,02,12.10
2019,06,25,07,03,12.10
2019,06,25,07,04,12.10
2019,06,25,07,05,12.10
2019,06,25,07,06,12.20
2019,06,25,07,07,12.20
2019,06,25,07,08,12.20
2019,06,25,07,09,12.30
2019,06,25,07,10,12.30
2019,06,25,07,11,12.30
2019,06,25,07,12,12.30
2019,06,25,07,13,12.30
2019,06,25,07,14,12.30
2019,06,25,07,15,12.30
2019,06,25,07,16,12.30
2019,06,25,07,17,12.40
2019,06,25,07,18,12.40
2019,06,25,07,19,12.40
2019,06,25,07,20,12.40
2019,06,25,07,21,12.40
2019,06,25,07,22,12.50
2019,06,25,07,23,12.50
2019,06,25,07,24,12.50
2019,06,25,07,25,12.60
2019,06,25,07,26,12.60
2019,06,25,07,27,12.60
2019,06,25,07,28,12.60
2019,06,25,07,29,12.60
2019,06,25,07,30,12.60
2019,06,25,07,31,12.70
2019,06,25,07,32,12.70
2019,06,25,07,33,12.70
2019,06,25,07,34,12.70
2019,06,25,07,35,12.80
2019,06,25,07,36,12.80
2019,06,25,07,37,12.80
2019,06,25,07,38,12.90
2019,06,25,07,39,12.90
2019,06,25,07,40,12.90
2019,06,25,07,41,12.90
2019,06,25,07,42,12.90
2019,06,25,07,43,13.00
2019,06,25,07,44,13.00
2019,06,25,07,45,13.00
2019,06,25,07,46,13.10
2019,06,25,07,47,13.10
2019,06,25,07,48,13.20
2019,06,25,07,49,13.20
2019,06,25,07,50,13.20
2019,06,25,07,51,13.20
2019,06,25,07,52,13.20
2019,06,25,07,53,13.30
2019,06,25,07,54,13.30
2019,06,25,07,55,13.30
2019,06,25,07,56,13.30
2019,06,25,07,57,13.40
2019,06,25,07,58,13.50
2019,06,25,07,59,13.50
2019,06,25,08,00,13.60
2019,06,25,08,01,13.60
2019,06,25,08,02,13.60
2019,06,25,08,03,13.60
2019,06,25,08,04,13.60
2019,06,25,08,05,13.60
2019,06,25,08,06,13.70
2019,06,25,08,07,13.70
2019,06,25,08,08,13.80
2019,06,25,08,09,13.80
2019,06,25,08,10,13.90
2019,06,25,08,11,13.90
2019,06,25,08,12,14.00
2019,06,25,08,13,14.10
2019,06,25,08,14,14.20
2019,06,25,08,15,14.20
2019,06,25,08,16,14.20
2019,06,25,08,17,14.30
2019,06,25,08,18,14.30
2019,06,25,08,19,14.40
2019,06,25,08,20,14.50
2019,06,25,08,21,14.50
2019,06,25,08,22,14.60
2019,06,25,08,23,14.70
2019,06,25,08,24,14.80
2019,06,25,08,25,14.80
2019,06,25,08,26,14.90
2019,06,25,08,27,15.00
2019,06,25,08,28,15.10
2019,06,25,08,29,15.20
2019,06,25,08,30,15.30
2019,06,25,08,31,15.30
2019,06,25,08,32,15.40
2019,06,25,08,33,15.40
2019,06,25,08,34,15.50
2019,06,25,08,35,15.60
2019,06,25,08,36,15.60
2019,06,25,08,37,15.70
2019,06,25,08,38,15.80
2019,06,25,08,39,15.80
2019,06,25,08,40,15.80
2019,06,25,08,41,15.70
2019,06,25,08,42,15.70
2019,06,25,08,43,15.80
2019,06,25,08,44,15.80
2019,06,25,08,45,15.80
2019,06,25,08,46,15.80
2019,06,25,08,47,15.90
2019,06,25,08,48,15.90
2019,06,25,08,49,15.90
2019,06,25,08,50,16.00
2019,06,25,08,51,16.00
2019,06,25,08,52,16.10
2019,06,25,08,53,16.10
2019,06,25,08,54,16.10
2019,06,25,08,55,16.00
2019,06,25,08,56,16.00
2019,06,25,08,57,15.90
2019,06,25,08,58,15.90
2019,06,25,08,59,15.80
2019,06,25,09,00,15.80
2019,06,25,09,01,15.80
2019,06,25,09,02,16.00
2019,06,25,09,03,16.00
2019,06,25,09,04,16.00
2019,06,25,09,05,16.00
2019,06,25,09,06,16.10
2019,06,25,09,07,16.10
2019,06,25,09,08,16.10
2019,06,25,09,09,16.00
2019,06,25,09,10,16.00
2019,06,25,09,11,16.00
2019,06,25,09,12,16.10
2019,06,25,09,13,16.10
2019,06,25,09,14,16.10
2019,06,25,09,15,16.20
2019,06,25,09,16,16.20
2019,06,25,09,17,16.20
2019,06,25,09,18,16.30
2019,06,25,09,19,16.30
2019,06,25,09,20,16.30
2019,06,25,09,21,16.30
2019,06,25,09,22,16.30
2019,06,25,09,23,16.30
2019,06,25,09,24,16.30
2019,06,25,09,25,16.30
2019,06,25,09,26,16.30
2019,06,25,09,27,16.30
2019,06,25,09,28,16.30
2019,06,25,09,29,16.20
2019,06,25,09,30,16.20
2019,06,25,09,31,16.30
2019,06,25,09,32,16.30
2019,06,25,09,33,16.30
2019,06,25,09,34,16.20
2019,06,25,09,35,16.20
2019,06,25,09,36,16.20
2019,06,25,09,37,16.20
2019,06,25,09,38,16.20
2019,06,25,09,39,16.20
2019,06,25,09,40,16.20
2019,06,25,09,41,16.20
2019,06,25,09,42,16.30
2019,06,25,09,43,16.40
2019,06,25,09,44,16.50
2019,06,25,09,45,16.60
2019,06,25,09,46,16.60
2019,06,25,09,47,16.70
2019,06,25,09,48,16.70
2019,06,25,09,49,16.70
2019,06,25,09,50,16.70
2019,06,25,09,51,16.60
2019,06,25,09,52,16.60
2019,06,25,09,53,16.50
2019,06,25,09,54,16.60
2019,06,25,09,55,16.60
2019,06,25,09,56,16.70
2019,06,25,09,57,16.70
2019,06,25,09,58,16.70
2019,06,25,09,59,16.80
2019,06,25,10,00,16.90
2019,06,25,10,01,17.00
2019,06,25,10,02,17.10
2019,06,25,10,03,17.10
2019,06,25,10,04,17.10
2019,06,25,10,05,17.00
2019,06,25,10,06,17.00
2019,06,25,10,07,17.00
2019,06,25,10,08,16.90
2019,06,25,10,09,16.90
2019,06,25,10,10,16.90
2019,06,25,10,11,16.90
2019,06,25,10,12,17.00
2019,06,25,10,13,17.00
2019,06,25,10,14,17.10
2019,06,25,10,15,17.10
2019,06,25,10,16,17.00
2019,06,25,10,17,17.00
2019,06,25,10,18,17.00
2019,06,25,10,19,17.00
2019,06,25,10,20,17.10
2019,06,25,10,21,17.20
2019,06,25,10,22,17.30
2019,06,25,10,23,17.30
2019,06,25,10,24,17.30
2019,06,25,10,25,17.30
2019,06,25,10,26,17.20
2019,06,25,10,27,17.20
2019,06,25,10,28,17.10
2019,06,25,10,29,17.10
2019,06,25,10,30,17.10
2019,06,25,10,31,17.10
2019,06,25,10,32,17.20
2019,06,25,10,33,17.20
2019,06,25,10,34,17.20
2019,06,25,10,35,17.10
2019,06,25,10,36,17.10
2019,06,25,10,37,17.10
2019,06,25,10,38,17.10
2019,06,25,10,39,17.00
2019,06,25,10,40,17.00
2019,06,25,10,41,17.10
2019,06,25,10,42,17.10
2019,06,25,10,43,17.10
2019,06,25,10,44,17.10
2019,06,25,10,45,17.10
2019,06,25,10,46,17.10
2019,06,25,10,47,17.10
2019,06,25,10,48,17.20
2019,06,25,10,49,17.10
2019,06,25,10,50,17.10
2019,06,25,10,51,17.10
2019,06,25,10,52,17.10
2019,06,25,10,53,17.20
2019,06,25,10,54,17.20
2019,06,25,10,55,17.20
2019,06,25,10,56,17.20
2019,06,25,10,57,17.20
2019,06,25,10,58,17.10
2019,06,25,10,59,17.00
2019,06,25,11,00,17.00
2019,06,25,11,01,17.00
2019,06,25,11,02,17.00
2019,06,25,11,03,17.10
2019,06,25,11,04,17.10
2019,06,25,11,05,17.20
2019,06,25,11,06,17.30
2019,06,25,11,07,17.40
2019,06,25,11,08,17.50
2019,06,25,11,09,17.60
2019,06,25,11,10,17.60
2019,06,25,11,11,17.60
2019,06,25,11,12,17.60
2019,06,25,11,13,17.70
2019,06,25,11,14,17.70
2019,06,25,11,15,17.80
2019,06,25,11,16,17.90
2019,06,25,11,17,18.00
2019,06,25,11,18,18.20
2019,06,25,11,19,18.30
2019,06,25,11,20,18.40
2019,06,25,11,21,18.40
2019,06,25,11,22,18.40
2019,06,25,11,23,18.30
2019,06,25,11,24,18.30
2019,06,25,11,25,18.30
2019,06,25,11,26,18.20
2019,06,25,11,27,18.20
2019,06,25,11,28,18.10
2019,06,25,11,29,18.10
2019,06,25,11,30,18.10
2019,06,25,11,31,18.20
2019,06,25,11,32,18.30
2019,06,25,11,33,18.30
2019,06,25,11,34,18.40
2019,06,25,11,35,18.30
2019,06,25,11,36,18.20
2019,06,25,11,37,18.20
2019,06,25,11,38,18.30
2019,06,25,11,39,18.40
2019,06,25,11,40,18.50
2019,06,25,11,41,18.60
2019,06,25,11,42,18.60
2019,06,25,11,43,18.60
2019,06,25,11,44,18.70
2019,06,25,11,45,18.70
2019,06,25,11,46,18.70
2019,06,25,11,47,18.70
2019,06,25,11,48,18.70
2019,06,25,11,49,18.80
2019,06,25,11,50,18.80
2019,06,25,11,51,18.80
2019,06,25,11,52,18.80
2019,06,25,11,53,18.80
2019,06,25,11,54,18.80
2019,06,25,11,55,18.80
2019,06,25,11,56,18.70
2019,06,25,11,57,18.70
2019,06,25,11,58,18.70
2019,06,25,11,59,18.80
2019,06,25,12,00,18.80
2019,06,25,12,01,18.90
2019,06,25,12,02,18.90
2019,06,25,12,03,18.90
2019,06,25,12,04,18.80
2019,06,25,12,05,18.90
2019,06,25,12,06,18.90
2019,06,25,12,07,19.00
2019,06,25,12,08,19.00
2019,06,25,12,09,19.00
2019,06,25,12,10,19.10
2019,06,25,12,11,19.00
2019,06,25,12,12,18.90
2019,06,25,12,13,18.70
2019,06,25,12,14,18.60
2019,06,25,12,15,18.60
2019,06,25,12,16,18.60
2019,06,25,12,17,18.60
2019,06,25,12,18,18.60
2019,06,25,12,19,18.70
2019,06,25,12,20,18.80
2019,06,25,12,21,18.80
2019,06,25,12,22,18.90
2019,06,25,12,23,19.00
2019,06,25,12,24,19.00
2019,06,25,12,25,19.00
2019,06,25,12,26,19.10
2019,06,25,12,27,19.00
2019,06,25,12,28,19.00
2019,06,25,12,29,18.90
2019,06,25,12,30,18.90
2019,06,25,12,31,18.80
2019,06,25,12,32,18.90
2019,06,25,12,33,19.00
2019,06,25,12,34,19.00
2019,06,25,12,35,19.00
2019,06,25,12,36,19.00
2019,06,25,12,37,19.00
2019,06,25,12,38,19.00
2019,06,25,12,39,19.00
2019,06,25,12,40,18.90
2019,06,25,12,41,18.90
2019,06,25,12,42,18.80
2019,06,25,12,43,18.80
2019,06,25,12,44,18.70
2019,06,25,12,45,18.60
2019,06,25,12,46,18.50
2019,06,25,12,47,18.60
2019,06,25,12,48,18.60
2019,06,25,12,49,18.70
2019,06,25,12,50,18.70
2019,06,25,12,51,18.80
2019,06,25,12,52,18.80
2019,06,25,12,53,18.90
2019,06,25,12,54,18.80
2019,06,25,12,55,18.80
2019,06,25,12,56,18.80
2019,06,25,12,57,18.90
2019,06,25,12,58,18.90
2019,06,25,12,59,19.00
2019,06,25,13,00,19.00
2019,06,25,13,01,19.10
2019,06,25,13,02,19.10
2019,06,25,13,03,19.10
2019,06,25,13,04,19.00
2019,06,25,13,05,19.00
2019,06,25,13,06,19.00
2019,06,25,13,07,19.20
2019,06,25,13,08,19.30
2019,06,25,13,09,19.40
2019,06,25,13,10,19.50
2019,06,25,13,11,19.50
2019,06,25,13,12,19.50
2019,06,25,13,13,19.40
2019,06,25,13,14,19.40
2019,06,25,13,15,19.40
2019,06,25,13,16,19.40
2019,06,25,13,17,19.40
2019,06,25,13,18,19.30
2019,06,25,13,19,19.30
2019,06,25,13,20,19.20
2019,06,25,13,21,19.10
2019,06,25,13,22,19.00
2019,06,25,13,23,18.90
2019,06,25,13,24,18.90
2019,06,25,13,25,18.90
2019,06,25,13,26,18.90
2019,06,25,13,27,18.90
2019,06,25,13,28,19.00
2019,06,25,13,29,19.10
2019,06,25,13,30,19.20
2019,06,25,13,31,19.30
2019,06,25,13,32,19.40
2019,06,25,13,33,19.40
2019,06,25,13,34,19.40
2019,06,25,13,35,19.40
2019,06,25,13,36,19.40
2019,06,25,13,37,19.30
2019,06,25,13,38,19.40
2019,06,25,13,39,19.50
2019,06,25,13,40,19.50
2019,06,25,13,41,19.50
2019,06,25,13,42,19.40
2019,06,25,13,43,19.40
2019,06,25,13,44,19.40
2019,06,25,13,45,19.40
2019,06,25,13,46,19.40
2019,06,25,13,47,19.50
2019,06,25,13,48,19.50
2019,06,25,13,49,19.60
2019,06,25,13,50,19.80
2019,06,25,13,51,19.90
2019,06,25,13,52,19.90
2019,06,25,13,53,20.00
2019,06,25,13,54,20.10
2019,06,25,13,55,20.10
2019,06,25,13,56,20.20
2019,06,25,13,57,20.30
2019,06,25,13,58,20.30
2019,06,25,13,59,20.30
2019,06,25,14,00,20.30
2019,06,25,14,01,20.30
2019,06,25,14,02,20.20
2019,06,25,14,03,20.00
2019,06,25,14,04,19.80
2019,06,25,14,05,19.70
2019,06,25,14,06,19.60
2019,06,25,14,07,19.50
2019,06,25,14,08,19.50
2019,06,25,14,09,19.50
2019,06,25,14,10,19.60
2019,06,25,14,11,19.70
2019,06,25,14,12,19.80
2019,06,25,14,13,19.80
2019,06,25,14,14,20.00
2019,06,25,14,15,20.00
2019,06,25,14,16,20.10
2019,06,25,14,17,20.10
2019,06,25,14,18,20.10
2019,06,25,14,19,20.20
2019,06,25,14,20,20.10
2019,06,25,14,21,20.10
2019,06,25,14,22,20.00
2019,06,25,14,23,20.00
2019,06,25,14,24,19.90
2019,06,25,14,25,19.90
2019,06,25,14,26,19.90
2019,06,25,14,27,19.80
2019,06,25,14,28,19.80
2019,06,25,14,29,19.70
2019,06,25,14,30,19.60
2019,06,25,14,31,19.60
2019,06,25,14,32,19.70
2019,06,25,14,33,19.70
2019,06,25,14,34,19.80
2019,06,25,14,35,19.80
2019,06,25,14,36,19.80
2019,06,25,14,37,19.90
2019,06,25,14,38,19.90
2019,06,25,14,39,19.80
2019,06,25,14,40,19.80
2019,06,25,14,41,19.80
2019,06,25,14,42,19.80
2019,06,25,14,43,19.80
2019,06,25,14,44,19.70
2019,06,25,14,45,19.80
2019,06,25,14,46,19.90
2019,06,25,14,47,20.00
2019,06,25,14,48,20.20
2019,06,25,14,49,20.30
2019,06,25,14,50,20.30
2019,06,25,14,51,20.40
2019,06,25,14,52,20.50
2019,06,25,14,53,20.60
2019,06,25,14,54,20.70
2019,06,25,14,55,20.80
2019,06,25,14,56,20.90
2019,06,25,14,57,20.90
2019,06,25,14,58,20.90
2019,06,25,14,59,20.90
2019,06,25,15,00,20.90
2019,06,25,15,01,20.90
2019,06,25,15,02,20.90
2019,06,25,15,03,20.90
2019,06,25,15,04,20.80
2019,06,25,15,05,20.80
2019,06,25,15,06,20.80
2019,06,25,15,07,20.80
2019,06,25,15,08,20.70
2019,06,25,15,09,20.70
2019,06,25,15,10,20.60
2019,06,25,15,11,20.60
2019,06,25,15,12,20.60
2019,06,25,15,13,20.50
2019,06,25,15,14,20.50
2019,06,25,15,15,20.40
2019,06,25,15,16,20.40
2019,06,25,15,17,20.40
2019,06,25,15,18,20.40
2019,06,25,15,19,20.50
2019,06,25,15,20,20.60
2019,06,25,15,21,20.60
2019,06,25,15,22,20.70
2019,06,25,15,23,20.70
2019,06,25,15,24,20.80
2019,06,25,15,25,20.80
2019,06,25,15,26,20.90
2019,06,25,15,27,20.90
2019,06,25,15,28,20.90
2019,06,25,15,29,20.80
2019,06,25,15,30,20.80
2019,06,25,15,31,20.70
2019,06,25,15,32,20.70
2019,06,25,15,33,20.70
2019,06,25,15,34,20.80
2019,06,25,15,35,20.80
2019,06,25,15,36,20.80
2019,06,25,15,37,20.80
2019,06,25,15,38,20.80
2019,06,25,15,39,20.90
2019,06,25,15,40,20.90
2019,06,25,15,41,21.00
2019,06,25,15,42,21.10
2019,06,25,15,43,21.10
2019,06,25,15,44,21.00
2019,06,25,15,45,21.00
2019,06,25,15,46,21.00
2019,06,25,15,47,21.00
2019,06,25,15,48,21.10
2019,06,25,15,49,21.20
2019,06,25,15,50,21.20
2019,06,25,15,51,21.30
2019,06,25,15,52,21.30
2019,06,25,15,53,21.30
2019,06,25,15,54,21.30
2019,06,25,15,55,21.30
2019,06,25,15,56,21.30
2019,06,25,15,57,21.20
2019,06,25,15,58,21.20
2019,06,25,15,59,21.20
2019,06,25,16,00,21.10
2019,06,25,16,01,21.10
2019,06,25,16,02,21.10
2019,06,25,16,03,21.00
2019,06,25,16,04,20.90
2019,06,25,16,05,20.90
2019,06,25,16,06,20.90
2019,06,25,16,07,20.80
2019,06,25,16,08,20.80
2019,06,25,16,09,20.80
2019,06,25,16,10,20.80
2019,06,25,16,11,20.90
2019,06,25,16,12,20.90
2019,06,25,16,13,20.90
2019,06,25,16,14,20.90
2019,06,25,16,15,20.90
2019,06,25,16,16,21.00
2019,06,25,16,17,21.00
2019,06,25,16,18,21.00
2019,06,25,16,19,21.10
2019,06,25,16,20,21.00
2019,06,25,16,21,21.00
2019,06,25,16,22,20.90
2019,06,25,16,23,20.90
2019,06,25,16,24,20.90
2019,06,25,16,25,20.90
2019,06,25,16,26,20.90
2019,06,25,16,27,20.90
2019,06,25,16,28,20.80
2019,06,25,16,29,20.70
2019,06,25,16,30,20.60
2019,06,25,16,31,20.60
2019,06,25,16,32,20.50
2019,06,25,16,33,20.60
2019,06,25,16,34,20.60
2019,06,25,16,35,20.60
2019,06,25,16,36,20.60
2019,06,25,16,37,20.70
2019,06,25,16,38,20.70
2019,06,25,16,39,20.80
2019,06,25,16,40,20.80
2019,06,25,16,41,20.80
2019,06,25,16,42,20.80
2019,06,25,16,43,20.90
2019,06,25,16,44,20.90
2019,06,25,16,45,21.00
2019,06,25,16,46,21.00
2019,06,25,16,47,21.00
2019,06,25,16,48,21.10
2019,06,25,16,49,21.10
2019,06,25,16,50,21.10
2019,06,25,16,51,21.20
2019,06,25,16,52,21.20
2019,06,25,16,53,21.20
2019,06,25,16,54,21.20
2019,06,25,16,55,21.20
2019,06,25,16,56,21.30
2019,06,25,16,57,21.30
2019,06,25,16,58,21.30
2019,06,25,16,59,21.20
2019,06,25,17,00,21.30
2019,06,25,17,01,21.30
2019,06,25,17,02,21.30
2019,06,25,17,03,21.30
2019,06,25,17,04,21.30
2019,06,25,17,05,21.20
2019,06,25,17,06,21.30
2019,06,25,17,07,21.30
2019,06,25,17,08,21.30
2019,06,25,17,09,21.30
2019,06,25,17,10,21.30
2019,06,25,17,11,21.40
2019,06,25,17,12,21.40
2019,06,25,17,13,21.40
2019,06,25,17,14,21.40
2019,06,25,17,15,21.30
2019,06,25,17,16,21.30
2019,06,25,17,17,21.30
2019,06,25,17,18,21.30
2019,06,25,17,19,21.30